Kolkata, India

4:27 AM IST on September 21, 2017 (GMT +0530)
Netaji Subhash Chandra Bose International

Weather History for VECC - October, 2012

Change the Weather History Date:

Tuesday, October 2, 2012

  Actual Average Record
Temperature  
Mean Temperature 88 °F -  
Max Temperature 97 °F 88 °F 97 °F (2012)
Min Temperature 79 °F 77 °F 75 °F (2002)
Cooling Degree Days 23    
Growing Degree Days 38 (Base 50)    
Moisture  
Dew Point 79 °F    
Average Humidity 76    
Maximum Humidity 94    
Minimum Humidity 52    
Precipitation  
Precipitation 0.00 in - - ()
Sea Level Pressure  
Sea Level Pressure 29.76 in    
Wind  
Wind Speed 4 mph ()    
Max Wind Speed 14 mph    
Max Gust Speed -    
Visibility 2.2 miles    
Events      
Averages and records for this station are not official NWS values.
T = Trace of Precipitation, MM = Missing Value Source: Averaged Metar Reports

Daily Weather History Graph

Daily Weather History Graph

Search for Another Location

Airport or City:

Trip Planner

Search our weather history database for the weather conditions in past years. The results will help you decide how hot, cold, wet, or windy it might be!

Date:

Astronomy

Oct. 02, 2012 Rise Set
Actual Time 5:28 AM IST 5:22 PM IST
Civil Twilight 5:05 AM IST 5:45 PM IST
Nautical Twilight 4:39 AM IST 6:11 PM IST
Astronomical Twilight 4:13 AM IST 6:37 PM IST
Moon 6:39 PM IST (10/2) 7:07 AM IST (10/2)
Length of Visible Light 12h 39m
Length of Day
11h 54m
Waning Gibbous, 96% of the Moon is Illuminated
Oct 2
Waning Gibbous
Oct 8
Last Quarter
Oct 15
New
Oct 22
First Quarter
Oct 30
Full

Hourly Weather History & Observations

Time (IST) Temp. Heat Index Dew Point Humidity Pressure Visibility Wind Dir Wind Speed Gust Speed Precip Events Conditions
12:20 AM 84.2 °F 96.1 °F 78.8 °F 84% 29.77 in - South 4.6 mph - N/A   Haze
12:50 AM 84.2 °F 96.1 °F 78.8 °F 84% 29.77 in - SSE 4.6 mph - N/A   Haze
1:20 AM 84.2 °F 96.1 °F 78.8 °F 84% 29.77 in - Calm Calm - N/A   Haze
1:50 AM 84.2 °F 96.1 °F 78.8 °F 84% 29.77 in - Calm Calm - N/A   Haze
2:20 AM 84.2 °F 96.1 °F 78.8 °F 84% 29.77 in - Calm Calm - N/A   Haze
2:30 AM 81 °F - 79 °F 92% 29.77 in 1 mi Calm Calm - -   Haze
2:50 AM 82.4 °F 92.4 °F 78.8 °F 89% 29.74 in - Calm Calm - N/A   Haze
3:20 AM 80.6 °F 87.1 °F 77.0 °F 89% 29.74 in - Calm Calm - N/A   Haze
3:50 AM 80.6 °F 87.1 °F 77.0 °F 89% 29.74 in - SSE 3.5 mph - N/A   Haze
4:20 AM 80.6 °F 87.1 °F 77.0 °F 89% 29.74 in - Calm Calm - N/A   Haze
4:50 AM 80.6 °F 87.1 °F 77.0 °F 89% 29.74 in - Calm Calm - N/A   Haze
5:20 AM 80.6 °F 87.1 °F 77.0 °F 89% 29.77 in - Calm Calm - N/A   Haze
5:30 AM 81 °F - 79 °F 90% 29.77 in 1 mi Calm Calm - -   Haze
5:50 AM 80.6 °F 88.1 °F 78.8 °F 94% 29.77 in - Calm Calm - N/A   Haze
6:20 AM 82.4 °F 92.4 °F 78.8 °F 89% 29.80 in - SSE 5.8 mph - N/A   Haze
6:50 AM 82.4 °F 92.4 °F 78.8 °F 89% 29.80 in 2.5 mi SSE 5.8 mph - N/A   Haze
7:20 AM 84.2 °F 98.3 °F 80.6 °F 89% 29.80 in 2.5 mi South 6.9 mph - N/A   Haze
7:50 AM 86.0 °F 101.9 °F 80.6 °F 84% 29.80 in 2.5 mi South 6.9 mph - N/A   Haze
8:20 AM 87.8 °F 104.9 °F 80.6 °F 79% 29.83 in 2.5 mi South 9.2 mph - N/A   Haze
8:30 AM 89 °F - 79 °F 66% 29.84 in 1 mi SE 2.3 mph - -   Haze
8:50 AM 89.6 °F 104.7 °F 78.8 °F 70% 29.83 in 2.5 mi SSW 11.5 mph - N/A   Haze
9:20 AM 89.6 °F 104.7 °F 78.8 °F 70% 29.83 in 2.5 mi South 11.5 mph - N/A   Haze
9:50 AM 91.4 °F 107.2 °F 78.8 °F 66% 29.83 in 2.5 mi South 9.2 mph - N/A   Haze
10:20 AM 91.4 °F 107.2 °F 78.8 °F 66% 29.80 in 2.5 mi South 9.2 mph - N/A   Haze
10:50 AM 91.4 °F 107.2 °F 78.8 °F 66% 29.80 in 2.5 mi South 11.5 mph - N/A   Haze
11:20 AM 93.2 °F 110.2 °F 78.8 °F 63% 29.80 in 2.5 mi South 11.5 mph - N/A   Haze
11:30 AM 95 °F - 80 °F 53% 29.81 in 1 mi SE 2.3 mph - -   Haze
11:50 AM 95.0 °F 112.2 °F 78.8 °F 59% 29.80 in 2.5 mi SW 9.2 mph - N/A   Haze
12:20 PM 93.2 °F 110.2 °F 78.8 °F 63% 29.77 in 2.5 mi WSW 11.5 mph - N/A   Haze
1:20 PM 95.0 °F 112.2 °F 78.8 °F 59% 29.71 in 2.5 mi SSW 11.5 mph - N/A   Haze
1:50 PM 95.0 °F 112.2 °F 78.8 °F 59% 29.71 in 2.5 mi SSW 13.8 mph - N/A   Haze
2:20 PM 93.2 °F 110.2 °F 78.8 °F 63% 29.71 in 2.5 mi WSW 11.5 mph - N/A   Haze
2:30 PM 94 °F - 78 °F 52% 29.73 in 1 mi SW 2.3 mph - -   Haze
2:50 PM 91.4 °F 107.2 °F 78.8 °F 66% 29.71 in 2.5 mi SW 11.5 mph - N/A   Haze
3:20 PM 91.4 °F 107.2 °F 78.8 °F 66% 29.68 in 2.5 mi WSW 9.2 mph - N/A   Haze
3:50 PM 91.4 °F 105.1 °F 77.0 °F 63% 29.68 in 2.5 mi SW 6.9 mph - N/A   Haze
4:20 PM 91.4 °F 107.2 °F 78.8 °F 66% 29.68 in 2.8 mi WSW 8.1 mph - N/A   Haze
4:50 PM 89.6 °F 104.7 °F 78.8 °F 70% 29.68 in 2.8 mi South 9.2 mph - N/A   Haze
5:20 PM 87.8 °F 102.5 °F 78.8 °F 75% 29.68 in 2.8 mi SSW 11.5 mph - N/A   Haze
5:30 PM 89 °F - 78 °F 63% 29.73 in 1 mi SW 3.5 mph - -   Haze
5:50 PM 87.8 °F 102.5 °F 78.8 °F 75% 29.71 in 2.8 mi West 6.9 mph - N/A   Haze
6:20 PM 86.0 °F 99.3 °F 78.8 °F 79% 29.74 in 2.8 mi SW 11.5 mph - N/A   Haze
7:20 PM 86.0 °F 99.3 °F 78.8 °F 79% 29.74 in 2.5 mi SSW 9.2 mph - N/A   Haze
8:20 PM 84.2 °F 96.1 °F 78.8 °F 84% 29.77 in 2.5 mi SSW 5.8 mph - N/A   Haze
8:30 PM 85 °F - 79 °F 77% 29.79 in 1 mi SSW 2.3 mph - -   Haze
9:20 PM 84.2 °F 96.1 °F 78.8 °F 84% 29.77 in 2.5 mi South 8.1 mph - N/A   Haze
10:20 PM 84.2 °F 96.1 °F 78.8 °F 84% 29.74 in 2.5 mi SSE 5.8 mph - N/A   Haze
11:20 PM 84.2 °F 96.1 °F 78.8 °F 84% 29.71 in 2.5 mi South 6.9 mph - N/A   Haze
11:30 PM 83 °F - 78 °F 82% 29.75 in 1 mi Calm Calm - -   Haze
11:50 PM 82.4 °F 92.4 °F 78.8 °F 89% 29.71 in 2.5 mi South 8.1 mph - N/A   Haze